Regional Weather Roundup
Issued by NWS State College, PA

Home | Current Version | Previous Version | Graphics & Text | Print | Product List | Glossary On
Versions: 1 2 3 4 5 6 7 8 9 10 11 12 13 14 15 16 17 18 19 20 21 22 23 24 25 26 27 28 29 30 31 32 33 34 35 36 37 38 39 40 41 42 43 44 45 46 47 48 49 50
000
ASUS41 KCTP 221603
RWRCTP

REGIONAL WEATHER ROUNDUP
NATIONAL WEATHER SERVICE STATE COLLEGE PA
1100 AM EST MON DEC 22 2014

Note: "fair" indicates few or no clouds below 12,000 feet with no
significant weather and/or obstructions to visibility.

* = STATION THAT DOES NOT REPORT PRECIPITATION /E.G. RAIN...SNOW...ETC/
    THUNDER OR FOG.

PAZ002>004-007>009-013>016-020>023-029>032-221700-
WESTERN PENNSYLVANIA

CITY           SKY/WX    TMP DP  RH WIND       PRES   REMARKS
ERIE           SUNNY     36  23  59 S7        30.11F
MEADVILLE      CLOUDY    30  22  72 SE7       30.09F HAZE
FRANKLIN*      CLOUDY    30  23  74 E9        30.12F
NEW CASTLE       N/A     29  27  92 CALM      30.12F
BEAVER COUNTY  CLOUDY    32  25  74 E3        30.10F
BUTLER*        CLOUDY    32  25  74 E6        30.13F
PITTSBURGH INT CLOUDY    33  26  75 SE7       30.10F
PITTSBURGH     CLOUDY    35  25  66 SE8       30.10F
INDIANA*       MOSUNNY   36  27  69 S8G16     30.17F
LATROBE        MOSUNNY   37  28  70 SE8       30.14F
WASHINGTON CO* NOT AVBL
$$

PAZ004>006-010>012-017>019-024>028-033>037-041-042-045-046-049>053-221700-
CENTRAL PENNSYLVANIA

CITY           SKY/WX    TMP DP  RH WIND       PRES   REMARKS
BRADFORD       MOSUNNY   27  21  78 SE14      30.12F
DUBOIS         PTSUNNY   29  24  82 SE13      30.12F
CLEARFIELD     PTSUNNY   28  23  81 NE7       30.19F
JOHNSTOWN      CLOUDY    28  23  81 S12       30.13S HAZE
ALTOONA        CLOUDY    29  24  82 E3        30.21F
STATE COLLEGE  CLOUDY    28  25  86 CALM      30.22F
WILLIAMSPORT   PTSUNNY   32  24  72 E14G21    30.29F
SELINSGROVE    CLOUDY    30  25  81 CALM      30.30F
FT INDIANTOWN  NOT AVBL
CAPITAL CITY   CLOUDY    31  25  78 CALM      30.31F
HARRISBURG     CLOUDY    30  24  78 CALM      30.30F
YORK           CLOUDY    30  26  85 N3        30.29F FOG
$$

PAZ038>040-043-044-047-048-054-055-060>062-067>071-221700-
EASTERN PENNSYLVANIA

CITY           SKY/WX    TMP DP  RH WIND       PRES   REMARKS
SCRANTON       CLOUDY    37  28  70 S7        30.27F
MOUNT POCONO   CLOUDY    30  27  88 SE6       30.25R
ALLENTOWN      CLOUDY    36  29  75 E5        30.31F
QUAKERTOWN*    CLOUDY    37  32  81 NE6       30.30F
READING        SUNNY     35  27  72 N9        30.27F
LANCASTER      PTSUNNY   34  27  75 E6        30.29F
COATESVILLE    MOSUNNY   36  32  87 E6        30.30R
POTTSTOWN      PTSUNNY   37  29  72 NE7       30.30F
BLUE BELL      SUNNY     41  32  70 NE3       30.29F
DOYLESTOWN     PTSUNNY   39  32  76 NE7       30.29F
WILLOW GROVE   NOT AVBL
NORTH PHILA    PTSUNNY   43  30  60 NE6       30.32S
PHILADELPHIA   PTSUNNY   40  31  70 E6        30.32S
$$



USA.gov is the U.S. government's official web portal to all federal, state and local government web resources and services.